GW1544 Weather Reports


time (UTC)temp
C
wind
direction
speed
KPH
gust
KPH
rain 1hr
cm
rain 24hr
cm
rain mn
cm
humidity
%
barometer
mb
20260507092744 8 162 0.0 0.0 0.00 0.00 0.00 95 1020.9
20260507092130 8 179 0.0 0.0 0.00 0.00 0.00 95 1020.9
20260507091510 8 162 0.0 0.0 0.00 0.00 0.00 95 1020.9
20260507090939 8 184 0.0 0.0 0.00 0.00 0.00 95 1020.9
20260507090318 8 181 0.0 0.0 0.00 0.00 0.00 94 1020.9
20260507085715 8 163 0.0 0.0 0.00 0.00 0.00 94 1021.3
20260507085109 8 176 0.0 0.0 0.00 0.00 0.00 94 1021.3
20260507084541 8 187 0.0 0.0 0.00 0.00 0.00 94 1020.9
20260507083925 8 158 0.0 0.0 0.00 0.00 0.00 94 1020.9
20260507083327 8 196 0.0 0.0 0.00 0.00 0.00 94 1020.6
20260507082121 8 213 0.0 0.0 0.00 0.00 0.00 93 1020.9
20260507081530 8 252 0.0 0.0 0.00 0.00 0.00 93 1020.9
20260507080917 8 188 0.0 0.0 0.00 0.00 0.00 93 1020.6
20260507080337 8 177 0.0 0.0 0.00 0.00 0.00 93 1020.9
20260507075716 8 209 0.0 0.0 0.00 0.00 0.00 93 1020.9
20260507075135 8 163 0.0 0.0 0.00 0.00 0.00 94 1020.9
20260507074541 8 154 0.0 0.0 0.00 0.00 0.00 93 1020.9
20260507073952 8 193 0.0 0.0 0.00 0.00 0.00 93 1020.9
20260507073328 8 156 0.0 0.0 0.00 0.00 0.00 93 1020.6
20260507072748 9 173 0.0 0.0 0.00 0.00 0.00 93 1020.6
20260507072116 9 171 0.0 0.0 0.00 0.00 0.00 93 1020.9
20260507071537 9 168 0.0 0.0 0.00 0.00 0.00 93 1020.9
20260507070310 9 204 0.0 3.2 0.00 0.00 0.00 93 1020.9
20260507065753 10 311 3.2 4.8 0.00 0.00 0.00 92 1020.9
20260507064514 10 336 3.2 3.2 0.00 0.00 0.00 91 1020.9
20260507063913 10 60 0.0 0.0 0.00 0.00 0.00 91 1020.9
20260507063347 10 234 0.0 0.0 0.00 0.00 0.00 90 1020.9
20260507062716 10 214 0.0 0.0 0.00 0.00 0.00 90 1020.9
20260507062130 10 199 0.0 0.0 0.00 0.00 0.00 89 1020.9
20260507061517 10 241 0.0 0.0 0.00 0.00 0.00 88 1020.9
20260507060928 10 265 0.0 0.0 0.00 0.00 0.00 88 1020.9
20260507060317 10 278 0.0 0.0 0.00 0.00 0.00 88 1020.9
20260507055734 10 306 0.0 0.0 0.00 0.00 0.00 88 1020.9
20260507055110 11 266 0.0 0.0 0.00 0.00 0.00 89 1021.3
20260507053926 11 147 0.0 0.0 0.00 0.00 0.00 88 1021.3
20260507052712 11 66 0.0 0.0 0.00 0.00 0.00 88 1021.3
20260507052147 11 88 0.0 0.0 0.00 0.00 0.00 88 1021.3
20260507051524 11 276 0.0 1.6 0.00 0.00 0.00 87 1021.3
20260507050911 11 187 0.0 0.0 0.00 0.00 0.00 87 1021.3
20260507050342 11 59 0.0 3.2 0.00 0.00 0.00 87 1021.3
20260507045750 11 137 0.0 3.2 0.00 0.00 0.00 87 1021.3
20260507045142 11 239 3.2 3.2 0.00 0.00 0.00 86 1021.3
20260507044539 11 342 3.2 4.8 0.00 0.00 0.00 87 1021.3
20260507043954 11 155 0.0 1.6 0.00 0.00 0.00 87 1021.3
20260507041541 12 140 0.0 0.0 0.00 0.00 0.00 82 1021.6
20260507040932 12 278 3.2 3.2 0.00 0.00 0.00 76 1021.6
20260507040332 12 155 0.0 3.2 0.00 0.00 0.00 75 1021.6
20260507035713 12 160 0.0 0.0 0.00 0.00 0.69 75 1021.3
20260507035145 12 252 0.0 3.2 0.00 0.00 0.69 75 1021.3
20260507034518 12 153 0.0 4.8 0.00 0.00 0.69 75 1021.3
20260507033911 12 307 3.2 4.8 0.00 0.00 0.69 76 1021.3
20260507033343 12 138 0.0 0.0 0.00 0.00 0.69 78 1021.3
20260507032121 12 149 0.0 0.0 0.00 0.00 0.69 82 1020.9
20260507030950 12 177 1.6 4.8 0.00 0.00 0.69 81 1020.9
20260507030351 12 160 0.0 0.0 0.00 0.00 0.69 84 1020.9
20260507025726 12 170 0.0 3.2 0.00 0.00 0.69 88 1020.9
20260507024540 12 146 0.0 3.2 0.00 0.00 0.69 93 1020.6
20260507023911 12 150 0.0 0.0 0.00 0.00 0.69 93 1020.6
20260507023354 12 150 0.0 0.0 0.00 0.00 0.69 93 1020.6
20260507022710 12 228 0.0 3.2 0.00 0.00 0.69 93 1020.9
20260507022117 12 114 0.0 3.2 0.00 0.00 0.69 93 1020.6
20260507021541 12 251 0.0 0.0 0.00 0.00 0.69 93 1020.6
20260507020939 12 255 3.2 3.2 0.00 0.00 0.69 93 1020.6
20260507020318 12 293 3.2 4.8 0.00 0.00 0.69 93 1020.6
20260507015728 12 226 0.0 0.0 0.00 0.00 0.69 93 1020.6
20260507015145 12 198 0.0 0.0 0.00 0.00 0.69 93 1020.6
20260507014513 12 126 0.0 0.0 0.00 0.00 0.69 93 1020.9
20260507013930 13 163 0.0 0.0 0.00 0.00 0.69 93 1020.9
20260507013354 13 283 1.6 1.6 0.00 0.00 0.69 93 1020.6
20260507012144 13 165 0.0 4.8 0.00 0.00 0.69 94 1020.3
20260507011532 13 176 0.0 0.0 0.00 0.00 0.69 94 1019.9
20260507010953 13 184 1.6 4.8 0.00 0.00 0.69 94 1019.9
20260507010329 13 172 0.0 3.2 0.00 0.00 0.69 95 1020.3
20260507005135 13 153 0.0 4.8 0.00 0.00 0.69 95 1019.9
20260507004543 13 158 0.0 0.0 0.00 0.00 0.69 94 1019.3
20260507003344 13 307 4.8 4.8 0.00 0.00 0.69 94 1019.9
20260507002728 13 208 3.2 4.8 0.00 0.00 0.69 94 1019.6
20260507001548 13 158 0.0 0.0 0.00 0.00 0.69 93 1018.6
20260507000314 13 211 0.0 3.2 0.00 0.00 0.69 93 1019.3
20260506235729 13 127 3.2 3.2 0.00 0.00 0.69 93 1019.3
20260506235133 13 168 0.0 0.0 0.00 0.00 0.69 93 1019.3
20260506234523 13 321 4.8 4.8 0.00 0.00 0.69 93 1019.3
20260506233939 13 162 0.0 0.0 0.00 0.00 0.69 93 1018.2
20260506233351 13 204 0.0 0.0 0.00 0.00 0.69 93 1018.9
20260506232743 13 175 0.0 0.0 0.00 0.00 0.69 92 1018.9
20260506232149 13 168 0.0 4.8 0.00 0.00 0.69 92 1019.3
20260506231525 13 123 3.2 3.2 0.00 0.00 0.69 92 1019.3
20260506230932 13 296 4.8 4.8 0.00 0.00 0.69 92 1018.9
20260506230329 13 167 3.2 6.4 0.00 0.00 0.69 92 1018.9
20260506225711 13 214 3.2 4.8 0.00 0.00 0.69 91 1018.6
20260506225110 13 201 0.0 0.0 0.00 0.00 0.69 90 1018.6
20260506224517 14 321 3.2 3.2 0.00 0.00 0.69 90 1018.9
20260506223932 14 300 4.8 4.8 0.00 0.00 0.69 90 1018.9
20260506223327 14 296 0.0 0.0 0.00 0.00 0.69 89 1018.9
20260506222722 14 290 3.2 4.8 0.00 0.00 0.69 88 1019.3
20260506222145 15 219 1.6 3.2 0.00 0.00 0.69 86 1019.3
20260506221515 15 198 0.0 1.6 0.00 0.00 0.69 85 1019.3
20260506220918 16 237 0.0 0.0 0.00 0.00 0.69 82 1019.3
20260506220343 16 173 4.8 4.8 0.00 0.00 0.69 81 1019.3
20260506215738 16 230 0.0 0.0 0.00 0.00 0.69 79 1018.9
20260506215142 16 265 3.2 3.2 0.00 0.00 0.69 79 1018.9
20260506214549 16 208 1.6 1.6 0.00 0.00 0.69 74 1018.6
20260506213317 16 176 3.2 3.2 0.00 0.00 0.69 74 1018.6
20260506212713 16 156 0.0 4.8 0.00 0.00 0.69 74 1018.6
20260506212127 16 175 0.0 4.8 0.00 0.00 0.69 74 1018.6
20260506210930 16 321 3.2 3.2 0.00 0.00 0.69 75 1018.2
20260506210347 16 131 3.2 3.2 0.00 0.00 0.69 77 1018.2
20260506204531 16 148 0.0 1.6 0.00 0.00 0.69 78 1018.6
20260506203311 16 144 3.2 6.4 0.00 0.00 0.69 75 1019.3
20260506202713 16 188 0.0 3.2 0.00 0.00 0.69 76 1018.9
20260506201533 16 181 0.0 6.4 0.00 0.00 0.69 76 1018.9
20260506200314 16 138 4.8 4.8 0.00 0.00 0.69 77 1018.9
20260506195752 16 181 1.6 3.2 0.00 0.00 0.69 79 1018.9
20260506194536 15 130 0.0 4.8 0.00 0.00 0.69 81 1019.3
20260506193953 15 164 0.0 4.8 0.00 0.00 0.69 80 1018.9
20260506193353 15 195 3.2 3.2 0.00 0.00 0.69 81 1018.9
20260506192743 15 202 0.0 3.2 0.00 0.00 0.69 82 1018.6
20260506192132 15 185 0.0 3.2 0.00 0.00 0.69 81 1018.6
20260506191543 15 158 0.0 1.6 0.00 0.00 0.69 80 1018.6
20260506190913 15 161 3.2 3.2 0.00 0.00 0.69 79 1018.6
20260506190341 15 145 3.2 4.8 0.00 0.00 0.69 78 1018.9
20260506185719 16 187 4.8 6.4 0.00 0.00 0.69 77 1018.6
20260506184536 15 185 3.2 9.7 0.00 0.00 0.69 77 1018.6
20260506183920 16 156 0.0 0.0 0.00 0.00 0.69 78 1018.6
20260506183330 16 90 3.2 3.2 0.00 0.00 0.69 82 1018.2
20260506182741 15 128 3.2 4.8 0.00 0.00 0.69 81 1018.6
20260506181541 15 144 1.6 3.2 0.00 0.00 0.69 83 1018.2
20260506180936 15 146 3.2 3.2 0.00 0.00 0.69 81 1018.6
20260506180354 15 170 0.0 1.6 0.00 0.00 0.69 79 1018.6
20260506175748 15 47 1.6 3.2 0.00 0.00 0.69 82 1018.6
20260506175127 15 152 4.8 4.8 0.00 0.00 0.69 84 1018.6
20260506174531 14 160 3.2 4.8 0.00 0.00 0.69 85 1018.9
20260506173943 14 146 0.0 3.2 0.00 0.00 0.69 86 1018.9
20260506173318 15 238 3.2 3.2 0.00 0.00 0.69 82 1018.6
20260506172712 14 170 0.0 4.8 0.00 0.00 0.69 88 1018.6
20260506172141 13 208 1.6 4.8 0.00 0.00 0.69 88 1018.6
20260506170953 13 344 6.4 6.4 0.00 0.00 0.69 86 1018.9
20260506170310 13 120 3.2 4.8 0.00 0.00 0.69 88 1018.9
20260506163946 13 39 4.8 4.8 0.00 0.00 0.69 90 1018.9
20260506163334 13 145 3.2 3.2 0.00 0.00 0.69 89 1018.9
20260506162749 13 159 0.0 6.4 0.00 0.00 0.69 89 1018.9
20260506162115 13 146 0.0 6.4 0.00 0.00 0.69 90 1018.6
20260506161546 13 146 0.0 0.0 0.00 0.00 0.69 92 1018.6
20260506160934 13 168 0.0 3.2 0.00 0.00 0.69 91 1018.6
20260506160351 12 183 3.2 3.2 0.00 0.00 0.69 91 1018.6
20260506155712 12 169 1.6 4.8 0.00 0.00 0.69 92 1018.9
20260506155128 12 189 3.2 4.8 0.00 0.00 0.69 92 1018.6
20260506154542 12 169 1.6 3.2 0.00 0.00 0.69 95 1018.6
20260506153930 12 250 3.2 3.2 0.00 0.00 0.69 95 1018.6
20260506153334 12 146 3.2 3.2 0.00 0.00 0.69 95 1018.6
20260506152733 11 142 1.6 8.0 0.00 0.00 0.69 94 1018.6
20260506151533 12 145 3.2 6.4 0.00 0.00 0.69 95 1018.2
20260506150933 12 162 0.0 1.6 0.00 0.00 0.69 96 1018.2
20260506150311 12 208 0.0 0.0 0.00 0.00 0.69 96 1018.2
20260506145750 12 165 0.0 0.0 0.00 0.00 0.69 97 1017.9
20260506145133 11 137 0.0 0.0 0.00 0.00 0.69 97 1017.9
20260506144538 11 197 4.8 6.4 0.00 0.00 0.69 96 1017.9
20260506143929 11 151 0.0 3.2 0.00 0.00 0.69 97 1017.9
20260506143317 11 228 9.7 9.7 0.00 0.00 0.69 97 1017.9
20260506142716 11 177 3.2 6.4 0.00 0.00 0.69 97 1017.6
20260506142117 11 55 1.6 3.2 0.00 0.00 0.69 97 1017.6
20260506141523 11 213 3.2 6.4 0.00 0.00 0.69 97 1017.2
20260506140935 11 142 0.0 4.8 0.00 0.00 0.69 98 1017.2
20260506140343 12 155 0.0 0.0 0.00 0.00 0.69 98 1017.2
20260506135734 11 147 3.2 11.3 0.00 0.00 0.69 98 1017.2
20260506135139 12 147 4.8 4.8 0.00 0.00 0.66 98 1017.2
20260506134512 12 150 0.0 0.0 0.00 0.00 0.66 98 1017.2
20260506133920 12 143 0.0 3.2 0.00 0.00 0.66 98 1017.2
20260506133350 12 160 4.8 4.8 0.00 0.00 0.66 97 1017.2
20260506132744 12 157 3.2 6.4 0.00 0.00 0.66 97 1016.9
20260506132120 12 216 6.4 8.0 0.00 0.00 0.66 97 1016.5
20260506131514 12 148 0.0 6.4 0.00 0.00 0.66 98 1016.5
20260506130920 12 338 4.8 6.4 0.00 0.00 0.66 98 1016.2
20260506125727 13 261 4.8 9.7 0.00 0.00 0.66 97 1015.9
20260506125146 14 287 3.2 6.4 0.00 0.00 0.66 98 1015.5
20260506124511 15 157 0.0 0.0 0.00 0.00 0.64 99 1015.2
20260506123932 15 156 0.0 0.0 0.00 0.00 0.64 99 1014.9
20260506123320 15 160 0.0 0.0 0.00 0.00 0.64 99 1014.9
20260506122715 15 161 0.0 0.0 0.00 0.00 0.64 99 1014.9
20260506122149 15 159 0.0 0.0 0.00 0.00 0.64 99 1014.9
20260506121518 15 165 0.0 0.0 0.00 0.00 0.64 99 1015.2
20260506120310 15 175 0.0 0.0 0.00 0.00 0.64 99 1014.5
20260506115715 15 165 0.0 0.0 0.00 0.00 0.64 99 1014.5
20260506115122 15 163 0.0 0.0 0.00 0.00 0.64 99 1014.2
20260506114533 15 160 0.0 0.0 0.00 0.00 0.64 99 1014.2
20260506113948 15 166 0.0 0.0 0.00 0.00 0.64 99 1014.2
20260506112733 15 204 0.0 4.8 0.00 0.00 0.64 99 1014.2
20260506111515 15 179 0.0 0.0 0.00 0.00 0.64 99 1013.8
20260506110913 14 134 0.0 0.0 0.00 0.00 0.64 99 1013.5
20260506105711 14 160 0.0 0.0 0.00 0.00 0.64 99 1013.2
20260506105146 14 161 0.0 0.0 0.00 0.00 0.64 99 1013.2
20260506103921 14 174 0.0 0.0 0.00 0.00 0.61 98 1013.2
20260506103351 14 167 0.0 0.0 0.00 0.00 0.61 98 1013.2
20260506102708 14 159 0.0 0.0 0.00 0.00 0.61 98 1013.5
20260506102109 14 219 4.8 4.8 0.00 0.00 0.58 98 1013.5
20260506100950 14 141 0.0 0.0 0.00 0.00 0.56 98 1013.5
20260506095711 14 165 0.0 0.0 0.00 0.00 0.56 98 1013.5
20260506095149 14 171 0.0 0.0 0.00 0.00 0.56 98 1013.5
20260506094538 14 161 0.0 0.0 0.00 0.00 0.56 98 1013.2
20260506093321 14 165 0.0 0.0 0.00 0.00 0.53 98 1013.5